^^
Station Historical Data
 
Daily Summary for September 24, 2018 Units:  Metric    English   Both
« Previous Day
Next Day »
Daily Weekly Monthly Yearly Custom
  Current: High: Low: Average:
Temperature: 19.2 °C -17.8 °C 16.9 °C 16.7 °C
Dew Point: -8.1 °C -17.8 °C -9.5 °C -8.9 °C
Humidity: 15% Humidity% 14% 15%
Wind Speed: 6.4km/h 0km/h 0km/h 1.4km/h
Wind Gust: 11.3km/h 0km/h - -
WindSW - - SW
Pressure: 1011.7 hPa 0 hPa 1011.4 hPa -
Precipitation: 0 mm      
Historical Graphs
 
 
Tabular Data for September 24, 2018
Time Temperature Dew Point Pressure Wind Wind Speed Wind Gust Humidity Rainfall Rate (Hourly) solar Conditions
-17.8 °C -17.8 °C 0 hPa Calm     Humidity% 0 mm SolarRadiationWatts/m^2 W/m2 Conditions
00:03 19.1 °C -9 °C 1011.4 hPa Calm     14% 0 mm 0.00 W/m2
00:07 19.1 °C -8.2 °C 1011.4 hPa Calm     15% 0 mm 0.00 W/m2
00:14 18.8 °C -8.4 °C 1011.4 hPa Calm     15% 0 mm 0.00 W/m2
00:18 18.4 °C -8.7 °C 1011.4 hPa Calm     15% 0 mm 0.00 W/m2
00:23 18.1 °C -8.1 °C 1011.7 hPa Calm     16% 0 mm 0.00 W/m2
00:28 18 °C -8.2 °C 1011.7 hPa Calm     16% 0 mm 0.00 W/m2
00:34 17.8 °C -8.4 °C 1011.7 hPa Calm     16% 0 mm 0.00 W/m2
00:38 17.7 °C -8.5 °C 1012.1 hPa SW 4.7 km/h 6.4 km/h 16% 0 mm 0.00 W/m2
00:43 18 °C -8.2 °C 1012.1 hPa Calm   3.2 km/h 16% 0 mm 0.00 W/m2
00:49 18.3 °C -8 °C 1012.4 hPa Calm     16% 0 mm 0.00 W/m2
00:53 18.6 °C -8.6 °C 1012.1 hPa Calm     15% 0 mm 0.00 W/m2
00:57 18.7 °C -8.5 °C 1012.1 hPa Calm     15% 0 mm 0.00 W/m2
01:04 18.6 °C -8.6 °C 1012.1 hPa Calm   6.4 km/h 15% 0 mm 0.00 W/m2
01:09 18.3 °C -8 °C 1012.1 hPa Calm     16% 0 mm 0.00 W/m2
01:13 17.9 °C -8.3 °C 1012.1 hPa Calm     16% 0 mm 0.00 W/m2
01:18 17.6 °C -8.5 °C 1012.1 hPa Calm     16% 0 mm 0.00 W/m2
01:24 17.4 °C -8.7 °C 1012.1 hPa Calm     16% 0 mm 0.00 W/m2
01:28 17.3 °C -8.8 °C 1011.7 hPa Calm     16% 0 mm 0.00 W/m2
01:32 17.1 °C -8.9 °C 1011.7 hPa Calm     16% 0 mm 0.00 W/m2
01:39 16.9 °C -9.1 °C 1011.7 hPa Calm   3.2 km/h 16% 0 mm 0.00 W/m2
01:44 17 °C -9 °C 1011.7 hPa Calm   6.4 km/h 16% 0 mm 0.00 W/m2
01:48 17.4 °C -9.5 °C 1011.7 hPa SW 7.9 km/h 9.7 km/h 15% 0 mm 0.00 W/m2
01:54 18.6 °C -8.6 °C 1011.7 hPa SW 9.7 km/h 11.3 km/h 15% 0 mm 0.00 W/m2
01:58 19 °C -8.2 °C 1011.7 hPa SW 7.9 km/h 11.3 km/h 15% 0 mm 0.00 W/m2
02:04 19.2 °C -8.1 °C 1011.7 hPa SW 6.4 km/h 11.3 km/h 15% 0 mm 0.00 W/m2
Canyon Roadhouse, Fishriver Canyon, Namibia
Compliments of Weather Underground - 1.75 mb